GW6573 Weather Reports


Display with metric or nautical units.
time (UTC)temp
F
wind
direction
speed
MPH
gust
MPH
rain 1hr
in
rain 24hr
in
rain mn
in
humidity
%
barometer
mb
20260510033444 81 115 6.0 8.0 0.00 0.14 0.14 66 1012.1
20260510032942 81 109 8.0 9.0 0.00 0.14 0.14 67 1012.1
20260510032439 81 103 4.0 7.0 0.00 0.14 0.14 67 1012.1
20260510031939 82 89 3.0 5.0 0.00 0.14 0.14 66 1012.1
20260510031435 82 106 8.0 10.0 0.00 0.14 0.14 66 1011.8
20260510030930 81 102 6.0 9.0 0.00 0.14 0.14 67 1011.8
20260510030426 81 104 4.0 8.0 0.00 0.14 0.14 69 1011.8
20260510025924 81 117 7.0 10.0 0.00 0.14 0.14 68 1011.8
20260510025421 81 113 11.0 12.0 0.00 0.14 0.14 68 1011.8
20260510024918 81 106 11.0 12.0 0.00 0.14 0.14 69 1011.4
20260510024415 81 109 10.0 12.0 0.00 0.14 0.14 70 1011.4
20260510023911 82 97 7.0 10.0 0.00 0.14 0.14 71 1011.4
20260510023407 82 109 9.0 11.0 0.00 0.14 0.14 71 1011.4
20260510022904 82 111 9.0 11.0 0.00 0.14 0.14 71 1011.4
20260510022403 82 106 9.0 11.0 0.00 0.14 0.14 71 1011.1
20260510021902 82 112 10.0 13.0 0.00 0.14 0.14 71 1011.1
20260510021401 82 101 9.0 13.0 0.00 0.14 0.14 71 1011.1
20260510020857 82 113 9.0 10.0 0.00 0.14 0.14 71 1011.1
20260510020352 82 107 10.0 14.0 0.00 0.14 0.14 71 1011.1
20260510015847 83 116 10.0 11.0 0.00 0.14 0.14 71 1011.1
20260510015344 83 89 7.0 10.0 0.00 0.14 0.14 71 1010.8
20260510014839 83 108 9.0 12.0 0.00 0.14 0.14 70 1010.8
20260510014337 84 109 11.0 15.0 0.00 0.14 0.14 69 1010.8
20260510013832 84 113 9.0 11.0 0.00 0.14 0.14 68 1010.8
20260510013328 84 106 11.0 14.0 0.00 0.14 0.14 67 1010.8
20260510012823 84 109 8.0 10.0 0.00 0.14 0.14 66 1010.4
20260510012323 85 105 8.0 10.0 0.00 0.14 0.14 66 1010.8
20260510011818 85 92 5.0 8.0 0.00 0.14 0.14 65 1010.4
20260510011314 85 98 5.0 7.0 0.00 0.14 0.14 65 1010.4
20260510010811 85 112 6.0 6.0 0.00 0.14 0.14 64 1010.4
20260510010308 85 112 5.0 7.0 0.00 0.14 0.14 64 1010.4
20260510005805 86 84 1.0 3.0 0.00 0.14 0.14 64 1010.4
20260510005301 86 103 5.0 7.0 0.00 0.14 0.14 63 1010.4
20260510004759 86 111 6.0 7.0 0.00 0.14 0.14 63 1010.4
20260510004256 86 117 6.0 7.0 0.00 0.14 0.14 62 1010.1
20260510003753 86 115 5.0 7.0 0.00 0.14 0.14 61 1010.1
20260510003250 86 105 4.0 7.0 0.00 0.14 0.14 61 1010.1
20260510002748 86 99 5.0 9.0 0.00 0.14 0.14 60 1010.1
20260510002246 87 114 3.0 4.0 0.00 0.14 0.14 60 1010.1
20260510001743 87 146 2.0 3.0 0.00 0.14 0.14 59 1010.1
20260510001241 87 91 4.0 6.0 0.00 0.14 0.14 59 1010.1
20260510000737 87 118 6.0 7.0 0.00 0.14 0.14 59 1010.1
20260510000234 87 94 4.0 6.0 0.00 0.14 0.14 59 1009.7
20260509235731 87 104 4.0 6.0 0.00 0.14 0.14 58 1009.7
20260509235227 87 117 5.0 8.0 0.00 0.14 0.14 57 1009.7
20260509234723 87 88 4.0 7.0 0.00 0.14 0.14 57 1009.7
20260509234221 88 111 4.0 8.0 0.00 0.14 0.14 56 1009.7
20260509233719 88 334 0.0 0.0 0.00 0.14 0.14 55 1009.7
20260509233216 87 89 2.0 4.0 0.00 0.14 0.14 57 1009.7
20260509232712 87 114 6.0 7.0 0.00 0.14 0.14 56 1009.7
20260509232209 87 107 9.0 11.0 0.00 0.14 0.14 57 1009.7
20260509231706 87 110 9.0 11.0 0.00 0.14 0.14 55 1009.7
20260509231203 88 105 6.0 8.0 0.00 0.14 0.14 54 1009.7
20260509230701 88 109 6.0 7.0 0.00 0.14 0.14 51 1009.7
20260509230157 89 99 3.0 5.0 0.00 0.14 0.14 50 1009.7
20260509225653 88 98 3.0 5.0 0.00 0.14 0.14 50 1009.7
20260509225148 88 101 3.0 6.0 0.00 0.14 0.14 50 1009.7
20260509224644 89 114 5.0 8.0 0.00 0.14 0.14 47 1009.7
20260509224141 88 77 3.0 5.0 0.00 0.14 0.14 47 1009.7
20260509223638 88 116 6.0 8.0 0.00 0.14 0.14 47 1009.7
20260509223135 88 110 7.0 8.0 0.00 0.14 0.14 45 1009.7
20260509222632 89 118 7.0 8.0 0.00 0.14 0.14 44 1009.7
20260509222127 89 109 4.0 6.0 0.00 0.14 0.14 43 1009.7
20260509221624 89 96 4.0 7.0 0.00 0.14 0.14 42 1009.4
20260509221120 89 102 4.0 7.0 0.00 0.14 0.14 41 1009.4
20260509220616 90 99 2.0 4.0 0.00 0.14 0.14 41 1009.4
20260509220112 91 80 3.0 4.0 0.00 0.14 0.14 39 1009.4
20260509215608 88 94 2.0 3.0 0.00 0.14 0.14 43 1009.7
20260509215105 86 109 4.0 5.0 0.00 0.14 0.14 42 1009.7
20260509214602 87 112 7.0 8.0 0.00 0.14 0.14 42 1009.7
20260509214059 88 107 4.0 6.0 0.00 0.14 0.14 40 1009.7
20260509213555 88 77 0.0 6.0 0.00 0.14 0.14 41 1009.7
20260509213052 87 78 1.0 4.0 0.00 0.14 0.14 43 1010.1
20260509212549 85 75 4.0 9.0 0.00 0.14 0.14 46 1010.1
20260509212046 83 82 3.0 4.0 0.00 0.14 0.14 50 1010.1
20260509211541 81 108 9.0 12.0 0.00 0.14 0.14 53 1010.4
20260509211038 82 125 10.0 15.0 0.00 0.14 0.14 54 1010.4
20260509210536 83 119 5.0 10.0 0.00 0.14 0.14 53 1010.1
20260509210032 82 124 6.0 9.0 0.00 0.14 0.14 54 1010.1
20260509205532 81 96 8.0 10.0 0.00 0.14 0.14 54 1010.1
20260509205027 79 89 7.0 11.0 0.00 0.14 0.14 60 1010.1
20260509204524 78 125 10.0 15.0 0.00 0.14 0.14 64 1010.4
20260509204020 78 125 7.0 23.0 0.00 0.14 0.14 65 1010.4
20260509203516 79 131 12.0 18.0 0.00 0.14 0.14 63 1010.4
20260509203015 78 85 13.0 19.0 0.00 0.14 0.14 67 1010.4
20260509202515 78 106 19.0 27.0 0.00 0.14 0.14 67 1010.4
20260509202010 80 105 16.0 19.0 0.47 0.13 0.13 57 1010.8
20260509201505 79 109 13.0 17.0 0.00 0.12 0.12 59 1010.8
20260509201003 79 239 2.0 5.0 0.00 0.11 0.11 66 1011.1
20260509200458 82 31 2.0 3.0 0.94 0.03 0.03 70 1011.4
20260509195954 84 35 8.0 12.0 0.00 0.03 0.03 63 1011.1
20260509195450 89 37 6.0 15.0 0.00 0.03 0.03 56 1011.1
20260509194949 92 37 0.0 0.0 0.00 0.03 0.03 55 1010.8
20260509194445 90 104 5.0 8.0 0.00 0.03 0.03 57 1010.8
20260509193942 90 113 4.0 6.0 0.00 0.03 0.03 57 1010.8
20260509193442 92 114 5.0 7.0 0.00 0.03 0.03 53 1010.8
20260509192938 92 292 0.0 0.0 0.00 0.03 0.03 53 1010.8
20260509192435 92 90 3.0 4.0 0.00 0.03 0.03 54 1010.8
20260509191930 91 76 3.0 4.0 0.00 0.03 0.03 56 1010.8
20260509191426 92 95 4.0 6.0 0.00 0.03 0.03 55 1010.8
20260509190922 92 94 2.0 4.0 0.00 0.03 0.03 55 1011.1
20260509190419 91 105 4.0 5.0 0.00 0.03 0.03 56 1010.8
20260509185917 91 115 6.0 7.0 0.00 0.03 0.03 56 1011.1
20260509185414 91 238 2.0 4.0 0.00 0.03 0.03 55 1011.1
20260509184911 91 233 2.0 4.0 0.00 0.03 0.03 56 1011.1
20260509184408 92 222 3.0 4.0 0.00 0.03 0.03 55 1011.1
20260509183905 94 108 2.0 5.0 0.00 0.03 0.03 54 1011.4
20260509183359 92 99 0.0 1.0 0.00 0.03 0.03 56 1011.4
20260509182855 91 111 4.0 6.0 0.00 0.03 0.03 57 1011.8
20260509182353 91 95 2.0 4.0 0.00 0.03 0.03 57 1011.8
20260509181850 92 152 1.0 3.0 0.00 0.03 0.03 56 1011.8
20260509181347 91 65 0.0 4.0 0.00 0.03 0.03 58 1012.1
20260509180844 91 182 4.0 8.0 0.00 0.03 0.03 57 1012.1
20260509180340 93 73 3.0 5.0 0.00 0.03 0.03 56 1011.8
20260509175837 91 338 1.0 7.0 0.00 0.03 0.03 59 1011.8
20260509175333 89 324 0.0 0.0 0.00 0.03 0.03 62 1012.5
20260509174829 89 324 0.0 0.0 0.00 0.03 0.03 63 1012.5
20260509174325 86 146 0.0 0.0 0.00 0.03 0.03 67 1012.5
20260509173821 87 116 8.0 13.0 0.00 0.03 0.03 66 1012.5
20260509173317 86 358 2.0 5.0 0.00 0.03 0.03 67 1012.8
20260509172813 86 113 2.0 4.0 0.00 0.03 0.03 68 1012.5
20260509172310 85 165 2.0 4.0 0.00 0.03 0.03 70 1012.8
20260509171806 85 108 2.0 6.0 0.00 0.03 0.03 70 1012.5
20260509171302 84 220 5.0 7.0 0.00 0.03 0.03 71 1012.5
20260509170759 86 227 4.0 6.0 0.00 0.03 0.03 69 1012.5
20260509170255 86 187 4.0 6.0 0.00 0.03 0.03 69 1012.5
20260509165754 85 111 1.0 3.0 0.00 0.03 0.03 71 1012.5
20260509165249 83 156 4.0 5.0 0.00 0.03 0.03 72 1012.8
20260509164745 84 98 0.0 2.0 0.00 0.03 0.03 73 1013.1
20260509164241 82 214 4.0 5.0 0.00 0.03 0.03 75 1012.8
20260509163738 82 225 1.0 6.0 0.00 0.03 0.03 75 1012.8
20260509163235 81 193 2.0 4.0 0.00 0.03 0.03 77 1012.8
20260509162733 82 193 4.0 6.0 0.00 0.03 0.03 77 1012.8
20260509162227 82 173 5.0 7.0 0.00 0.03 0.03 76 1012.8
20260509161723 81 202 0.0 2.0 0.00 0.03 0.03 78 1012.8
20260509161220 81 178 6.0 8.0 0.00 0.03 0.03 78 1012.8
20260509160715 82 116 4.0 5.0 0.00 0.03 0.03 77 1012.8
20260509160211 80 122 3.0 6.0 0.00 0.03 0.03 80 1012.8
20260509155706 80 110 2.0 6.0 0.00 0.03 0.03 80 1012.8
20260509155203 80 191 1.0 3.0 0.00 0.03 0.03 80 1012.8
20260509154659 81 261 4.0 5.0 0.00 0.03 0.03 78 1012.8
20260509154157 80 79 3.0 4.0 0.00 0.03 0.03 79 1012.8
20260509153654 79 119 3.0 7.0 0.00 0.03 0.03 82 1012.8
20260509153150 79 193 3.0 7.0 0.00 0.03 0.03 84 1012.8
20260509152646 79 182 5.0 9.0 0.00 0.03 0.03 84 1012.8
20260509152143 79 67 0.0 0.0 0.00 0.03 0.03 86 1012.8
20260509151639 77 128 4.0 6.0 0.00 0.03 0.03 89 1012.8
20260509151137 77 118 7.0 9.0 0.00 0.03 0.03 91 1012.8
20260509150635 76 105 4.0 8.0 0.00 0.03 0.03 91 1012.8
20260509150133 76 123 5.0 7.0 0.00 0.03 0.03 92 1013.1
20260509145629 75 116 10.0 13.0 0.00 0.03 0.03 92 1013.1
20260509145124 75 117 8.0 11.0 0.00 0.03 0.03 92 1012.8
20260509144621 75 113 5.0 10.0 0.00 0.03 0.03 92 1012.5
20260509144118 75 105 6.0 9.0 0.00 0.03 0.03 94 1012.8
20260509143615 75 122 4.0 8.0 0.00 0.03 0.03 95 1012.5
20260509143113 74 116 7.0 11.0 0.00 0.03 0.03 95 1012.8
20260509142608 74 120 5.0 7.0 0.00 0.03 0.03 96 1012.8
20260509142104 74 101 7.0 11.0 0.00 0.03 0.03 96 1012.5
20260509141600 74 128 9.0 12.0 0.00 0.03 0.03 96 1012.1
20260509141057 74 114 12.0 15.0 0.00 0.03 0.03 96 1012.5
20260509140554 74 112 11.0 13.0 0.00 0.02 0.02 95 1012.5
20260509140052 74 111 9.0 12.0 0.00 0.02 0.02 95 1012.5
20260509135549 74 135 6.0 9.0 0.00 0.02 0.02 95 1012.8
20260509135047 74 165 2.0 3.0 0.00 0.02 0.02 95 1012.8
20260509134543 74 312 1.0 2.0 0.00 0.02 0.02 95 1012.8
20260509134041 74 312 0.0 0.0 0.00 0.02 0.02 95 1013.1
20260509133537 74 312 1.0 2.0 0.00 0.02 0.02 96 1013.1
20260509133035 74 312 0.0 0.0 0.00 0.02 0.02 96 1013.1
20260509132533 74 312 0.0 1.0 0.00 0.02 0.02 96 1013.1
20260509132032 74 312 0.0 2.0 0.00 0.02 0.02 96 1013.1
20260509131527 74 312 2.0 4.0 0.00 0.02 0.02 97 1013.1
20260509131025 73 312 1.0 2.0 0.00 0.02 0.02 97 1012.8
20260509130520 73 312 0.0 1.0 0.00 0.02 0.02 97 1012.8
20260509130017 73 312 3.0 4.0 0.00 0.02 0.02 97 1012.5
20260509125513 73 312 2.0 3.0 0.00 0.02 0.02 97 1012.5
20260509125010 73 312 0.0 1.0 0.00 0.02 0.02 97 1012.5
20260509124507 73 238 0.0 2.0 0.00 0.02 0.02 97 1012.1
20260509124004 73 188 2.0 2.0 0.00 0.02 0.02 97 1012.5
20260509123502 73 188 0.0 0.0 0.00 0.02 0.02 97 1012.5
20260509122957 73 188 0.0 0.0 0.00 0.02 0.02 97 1012.5
20260509122454 73 110 3.0 5.0 0.00 0.02 0.02 97 1012.5
20260509121951 73 356 1.0 2.0 0.00 0.02 0.02 97 1012.5
20260509121448 73 356 0.0 0.0 0.00 0.02 0.02 96 1012.5
20260509120946 73 356 0.0 0.0 0.00 0.02 0.02 96 1012.8
20260509120443 73 356 3.0 4.0 0.00 0.02 0.02 97 1012.8
20260509115941 73 356 0.0 0.0 0.00 0.02 0.02 97 1012.8
20260509115438 73 356 0.0 0.0 0.00 0.02 0.02 97 1012.8
20260509114935 73 356 0.0 0.0 0.00 0.02 0.02 97 1012.8
20260509114434 73 356 0.0 1.0 0.00 0.02 0.02 97 1013.1
20260509113933 73 356 2.0 4.0 0.00 0.02 0.02 97 1013.1
20260509113430 73 356 3.0 4.0 0.00 0.02 0.02 97 1013.1
20260509112927 73 356 3.0 3.0 0.00 0.02 0.02 97 1013.1
20260509112424 73 336 3.0 5.0 0.00 0.02 0.02 97 1013.5
20260509111921 73 334 4.0 6.0 0.00 0.02 0.02 97 1013.1
20260509111418 73 46 0.0 0.0 0.00 0.02 0.02 97 1013.5
20260509110916 73 46 0.0 2.0 0.00 0.02 0.02 97 1013.5
20260509110411 73 46 1.0 2.0 0.00 0.02 0.02 97 1013.5
20260509105910 73 46 0.0 2.0 0.00 0.02 0.02 97 1013.5
20260509105408 73 46 0.0 1.0 0.00 0.02 0.02 97 1013.5
20260509104904 73 346 3.0 4.0 0.00 0.02 0.02 97 1013.8
20260509104401 73 346 3.0 4.0 0.00 0.02 0.02 97 1013.8
20260509103859 73 346 3.0 4.0 0.00 0.02 0.02 97 1013.8
20260509103356 73 355 2.0 4.0 0.00 0.02 0.02 97 1013.5
20260509102855 73 355 2.0 4.0 0.00 0.02 0.02 97 1013.5
20260509102351 73 355 3.0 5.0 0.00 0.02 0.02 97 1013.5
20260509101847 73 356 2.0 3.0 0.00 0.02 0.02 98 1013.1
20260509101343 73 356 0.0 0.0 0.00 0.02 0.02 98 1012.8
20260509100841 73 356 0.0 0.0 0.00 0.02 0.02 98 1012.5
20260509100338 73 356 0.0 0.0 0.00 0.02 0.02 98 1012.5
20260509095835 73 356 0.0 0.0 0.00 0.02 0.02 98 1012.5
20260509095332 73 356 0.0 0.0 0.00 0.02 0.02 98 1012.5
20260509094829 73 356 0.0 0.0 0.00 0.02 0.02 98 1012.5
20260509094326 73 356 0.0 0.0 0.00 0.02 0.02 98 1012.5
20260509093824 73 356 0.0 0.0 0.00 0.02 0.02 98 1012.5
20260509093320 73 356 0.0 0.0 0.00 0.02 0.02 98 1012.5
20260509092819 73 356 0.0 0.0 0.00 0.02 0.02 97 1012.5
20260509092317 73 356 0.0 0.0 0.00 0.02 0.02 97 1012.5
20260509091814 73 356 0.0 0.0 0.00 0.02 0.02 97 1012.1
20260509091311 73 356 0.0 0.0 0.00 0.02 0.02 97 1012.1
20260509090808 73 356 0.0 0.0 0.00 0.02 0.02 97 1012.1
20260509090305 73 356 0.0 0.0 0.00 0.02 0.02 97 1012.1
20260509085803 73 356 0.0 0.0 0.00 0.02 0.02 97 1012.1
20260509085300 73 356 0.0 0.0 0.00 0.01 0.01 97 1012.1
20260509084756 73 356 0.0 0.0 0.00 0.01 0.01 97 1012.5
20260509084253 73 356 0.0 0.0 0.00 0.01 0.01 97 1012.5
20260509083751 73 356 0.0 0.0 0.00 0.01 0.01 96 1012.5
20260509083247 73 356 2.0 3.0 0.00 0.01 0.01 96 1012.5
20260509082744 73 356 0.0 1.0 0.47 0.00 0.00 96 1012.5
20260509082241 73 356 0.0 0.0 0.00 0.00 0.00 96 1012.8
20260509081738 73 356 0.0 0.0 0.00 0.00 0.00 96 1012.8
20260509081235 73 356 2.0 2.0 0.00 0.00 0.00 96 1012.8
20260509080734 73 356 0.0 2.0 0.00 0.00 0.00 95 1012.5
20260509080231 73 0 2.0 4.0 0.00 0.00 0.00 95 1012.5
20260509075729 73 45 2.0 4.0 0.00 0.00 0.00 95 1012.5
20260509075226 73 59 0.0 0.0 0.00 0.00 0.00 95 1012.5
20260509074723 73 59 0.0 0.0 0.00 0.00 0.00 95 1012.5
20260509074221 73 54 1.0 2.0 0.00 0.00 0.00 95 1012.5
20260509073716 73 77 4.0 5.0 0.00 0.00 0.00 95 1012.5
20260509073213 73 88 4.0 6.0 0.00 0.00 0.00 95 1012.5
20260509072709 73 120 2.0 3.0 0.00 0.00 0.00 95 1012.5
20260509072207 73 105 5.0 6.0 0.00 0.00 0.00 95 1012.5
20260509071703 73 106 6.0 7.0 0.00 0.00 0.00 95 1012.5
20260509071201 73 120 3.0 5.0 0.00 0.00 0.00 95 1012.8
20260509070658 73 104 3.0 5.0 0.00 0.00 0.00 95 1012.8
20260509070154 73 98 2.0 3.0 0.00 0.00 0.00 95 1012.8
20260509065650 73 87 1.0 5.0 0.00 0.00 0.00 95 1012.5
20260509065146 73 109 5.0 6.0 0.00 0.00 0.00 95 1012.5
20260509064643 73 133 5.0 9.0 0.00 0.00 0.00 95 1012.5
20260509064141 73 114 7.0 8.0 0.00 0.00 0.00 94 1012.5
20260509063637 73 108 6.0 8.0 0.00 0.00 0.00 94 1012.5
20260509063134 73 129 3.0 5.0 0.00 0.00 0.00 94 1012.5
20260509062631 73 93 8.0 10.0 0.00 0.00 0.00 94 1012.5
20260509062128 73 101 8.0 11.0 0.00 0.00 0.00 94 1012.5
20260509061625 73 105 10.0 11.0 0.00 0.00 0.00 94 1012.5
20260509061123 73 109 9.0 12.0 0.00 0.00 0.00 94 1012.1
20260509060620 73 105 10.0 12.0 0.00 0.00 0.00 93 1012.1
20260509060116 73 114 8.0 11.0 0.00 0.00 0.00 93 1012.1
20260509055611 73 118 12.0 15.0 0.00 0.00 0.00 92 1012.1
20260509055107 74 119 10.0 12.0 0.00 0.00 0.00 92 1012.1
20260509054604 74 111 12.0 17.0 0.00 0.00 0.00 91 1012.5
20260509054102 74 117 12.0 15.0 0.00 0.00 0.00 91 1012.1
20260509053600 74 120 11.0 15.0 0.00 0.00 0.00 90 1012.1
20260509053057 74 118 6.0 11.0 0.00 0.00 0.00 90 1012.5
20260509052555 74 123 6.0 12.0 0.00 0.00 0.00 90 1012.1
20260509052053 74 108 13.0 15.0 0.00 0.00 0.00 90 1012.1
20260509051550 74 106 11.0 13.0 0.00 0.00 0.00 90 1011.8
20260509051047 75 109 11.0 14.0 0.00 0.00 0.00 89 1011.8
20260509050544 75 111 12.0 13.0 0.00 0.00 0.00 89 1011.8
20260509050040 75 102 10.0 11.0 0.00 0.00 0.00 89 1012.1
20260509045538 75 100 9.0 12.0 0.00 0.00 0.00 89 1012.1
20260509045034 75 100 9.0 11.0 0.00 0.00 0.00 89 1011.8
20260509044532 75 107 9.0 11.0 0.00 0.00 0.00 88 1011.8
20260509044030 75 99 11.0 13.0 0.00 0.00 0.00 88 1011.8
20260509043526 75 103 11.0 14.0 0.00 0.00 0.00 87 1012.1
20260509043021 75 111 11.0 14.0 0.00 0.00 0.00 87 1011.8
20260509042518 75 108 10.0 12.0 0.00 0.00 0.00 87 1012.1
20260509042014 76 115 8.0 11.0 0.00 0.00 0.00 86 1012.1
20260509041511 76 128 7.0 11.0 0.00 0.00 0.00 86 1012.1
20260509041009 76 117 6.0 10.0 0.00 0.00 0.00 86 1012.1
20260509040507 76 93 5.0 9.0 0.00 0.00 0.00 86 1012.1
20260509040003 76 131 7.0 11.0 0.00 0.00 0.00 85 1012.1
20260509035500 76 89 5.0 8.0 0.00 0.00 0.00 85 1012.1
20260509034956 76 111 10.0 12.0 0.00 0.00 0.00 85 1012.1
20260509034455 76 100 6.0 9.0 0.00 0.00 0.00 84 1012.1
20260509033951 76 111 8.0 9.0 0.00 0.00 0.00 84 1012.1